Погода в Фарафангане

Мадагаскар     22°49′20″S   47°49′17″E
темп.,
°C
ветер,
м/с
пор.,
м/с
влажн.,
%
обл.,
%
осадки,
мм/ч
давл.,
гПа
погр.,
м
10 августа, ср
ср1000:00+18ссз129580 2.0 1025144
03:00+18всв2493100 4.6 1024258
06:00+19всв51083100 1.6 1025529
09:00+20в497595 1.7 1026553
12:00+22всв476776 0.1 10261142
15:00+22в466772 0.3 10251096
18:00+19всв367822 0.3 1025267
21:00+18всв248358 0.7 1026189
11 августа, чт
чт1100:00+18св368340 0.9 1026227
03:00+17ссв238930 1.7 1025161
06:00+16с129065 0.3 1026155
09:00+18ссз138758 0.9 1027246
12:00+21св357772 1.3 1025771
15:00+22всв556521 1.7 10241273
18:00+19всв368013 0.3 1025272
21:00+18св248730 0.9 1026186
12 августа, пт
пт1200:00+18ссв139043 0.8 1025128
03:00+17ссз129277 1.5 1024147
06:00+17з119392 0.9 102595
09:00+20сз128349 1.9 1025213
12:00+21св367953 1.6 1024850
15:00+22всв567456 2.3 10221000
18:00+19св389045 1.4 1022331
21:00+18с139122 2.6 1023142
13 августа, сб
сб1300:00+17зсз129728 0.3 102357
03:00+16сз129613 0.3 102250
06:00+16ссз12966 0.0 102249
09:00+20с25820 0.0 1023390
12:00+24св456322 0.0 10211216
15:00+23св57683 0.0 1019840
18:00+20св49810 0.0 1020516
21:00+19ссв378722 0.0 1021324
14 августа, вс
вс1400:00+18ссв310940 0.1 1020356
03:00+17с26953 0.2 1019237
06:00+17ссз14969 0.0 1019128
09:00+21с38760 0.0 1020686
12:00+24св576572 0.0 10181365
15:00+23св697514 0.1 1016722
18:00+21ссв410810 0.0 1017582
21:00+20ссв411850 0.0 1018663